This demonstration page uses our WeatherBlox Daily Observations layout. Learn more.

Left ArrowRight Arrow

Hourly Observations for March 3, 2020

Temp ( °F °C ) Dew Point ( °F °C ) Humidity (%) Winds ( mph kmh ) Pressure ( in mb ) Visibility ( mi km ) Precip ( " mm )
12:56 am 00:56 Mostly Clear 39 4.1 30 -0.9 70 70 W 8 13 29.68 1005 10 16 0.00 0.00
1:56 am 01:56 Clear 37 2.9 29 -1.5 73 73 WNW 8 13 29.70 1006 10 16 0.00 0.00
2:56 am 02:56 Clear 34 0.9 28 -2.3 79 79 WNW 7 11 29.71 1006 10 16 0.00 0.00
3:56 am 03:56 Clear 36 2 26 -3.1 69 69 W 7 11 29.72 1006 10 16 0.00 0.00
4:56 am 04:56 Clear 36 2.1 26 -3.4 67 67 W 9 15 29.74 1007 10 16 0.00 0.00
5:56 am 05:56 Clear 33 0.7 25 -4.1 71 71 W 8 13 29.77 1008 10 16 0.00 0.00
6:56 am 06:56 Sunny 33 0.8 24 -4.2 70 70 W 7 11 29.80 1009 10 16 0.00 0.00
7:56 am 07:56 Sunny 36 2.1 25 -3.8 65 65 WNW 6 9 29.82 1010 10 16 0.00 0.00
8:56 am 08:56 Sunny 41 5 26 -3.1 56 56 WNW 10 17 29.83 1010 10 16 0.00 0.00
9:56 am 09:56 Sunny 45 7.3 27 -3 48 48 WNW 8 13 29.83 1010 10 16 0.00 0.00
10:56 am 10:56 Sunny 49 9.7 27 -2.9 41 41 W 9 15 29.82 1010 10 16 0.00 0.00
11:56 am 11:56 Sunny 53 11.6 28 -2.2 38 38 W 8 13 29.80 1009 10 16 0.00 0.00
12:56 pm 12:56 Sunny 56 13.6 28 -2.4 33 33 WNW 15 24 29.79 1009 10 16 0.00 0.00
1:53 pm 13:53 Sunny 59 15 27 -3 29 29 WSW 18 30 29.76 1008 10 16 0.00 0.00
1:56 pm 13:56 Sunny 58 14.6 26 -3.2 29 29 WSW 16 26 29.76 1008 10 16 0.00 0.00
2:56 pm 14:56 Sunny 60 15.3 24 -4.6 25 25 WSW 18 30 29.76 1008 10 16 0.00 0.00
3:56 pm 15:56 Partly Cloudy 60 15.4 23 -5.1 24 24 W 16 26 29.75 1008 10 16 0.00 0.00
4:56 pm 16:56 Sunny 59 14.9 23 -5 25 25 WSW 15 24 29.77 1008 10 16 0.00 0.00
5:56 pm 17:56 Partly Cloudy 57 13.8 24 -4.4 28 28 WSW 8 13 29.78 1008 10 16 0.00 0.00
6:56 pm 18:56 Partly Cloudy 52 11.3 23 -4.8 32 32 SW 6 9 29.78 1008 10 16 0.00 0.00
7:56 pm 19:56 Mostly Cloudy 53 11.7 24 -4.5 32 32 SSW 10 17 29.77 1008 10 16 0.00 0.00
8:56 pm 20:56 Cloudy 55 13 29 -1.7 36 36 WSW 8 13 29.75 1008 10 16 0.00 0.00
9:56 pm 21:56 Cloudy 56 13.6 27 -2.8 32 32 W 18 30 29.79 1009 10 16 0.00 0.00
10:56 pm 22:56 Mostly Cloudy 52 11.1 30 -1 43 43 WNW 16 26 29.83 1010 10 16 0.00 0.00
11:56 pm 23:56 Clear 48 9.1 33 0.8 56 56 WNW 18 30 29.86 1011 10 16 0.00 0.00

Powered by AerisWeather